FENGYUN 1C DEB *

Satellite information

Favourite Embed

Satellite Type and Status

DEBRISIN ORBIT

Key statistics

Satellite FENGYUN 1C DEB * at a glance.

Uptime

9554

Days in orbit

Revolutions

≈ 13.8

Per day

Orbit

SSO

Sun Synchronous Orbit

Inclination

99.5

Latest

Satellite identification and parameters

Extended collection of information and parameters for FENGYUN 1C DEB *.

Object identification

Identified? True

Debris? True

Object name: FENGYUN 1C DEB *

International designator: 1999-025EZP

Object number (NORAD): 46989

Object ID (CCSDS): 46989

Country: PEOPLES REPUBLIC OF CHINA (PRC)

Current information (Y/N): Y

RCS size: SMALL

Orbital parameters

Period: 104.544 minutes

Inclination: 99.5091 deg

SMA: 7351.223 km

Apoapsis: 1153.6 km

Periapsis: 792.577 km

RAAN: 346.9768 deg

Eccentricy: 0.0245553

Argument of periapsis: 43.2863 deg

Mean anomaly: 336.3299 deg

Mean motion: 13.77410322 rev/day

Mean motion (dot): 0.00002686 rev/day2

B* drag term: 0.0021974 1/REarth

Two-line elements (TLE)

Creation date: July 5, 2025, 6:36 a.m.

Reference frame: TEME

Reference center: EARTH

Epoch: July 4, 2025, 5:05 p.m. UTC

TLE line 0: 0 FENGYUN 1C DEB *

TLE line 1: 1 46989U 99025EZP 25185.71198743 .00002686 00000-0 21974-2 0 9999

TLE line 2: 2 46989 99.5091 346.9768 0245553 43.2863 336.3299 13.77410322688236

Live tracking on map

Real-time ground track for satellite FENGYUN 1C DEB *.

In-orbit conjunctions

A list of the most updated potential collisions computed for object FENGYUN 1C DEB *.

Target Orbit TCA Probability of collision Miss distance Type
SL-14 DEB LEO 2025-04-12 04:35:51 0.0001307787 96.0 (m) DEBRIS
CZ-6A DEB LEO 2025-01-04 03:25:50 0.0001160522 830.0 (m) DEBRIS
CZ-6A DEB LEO 2024-11-14 23:14:31 0.0002519922 254.0 (m) DEBRIS

Associated space launch

Chinese polar orbiting meteorological satellite

FENGYUN 1C DEB * was lifted into orbit during the mission ‘Long March 4B | Feng Yun 1C’, on board a Long March 4B space rocket.

The launch took place on May 10, 1999, 1:33 a.m. from Launch Complex 7.

For more information about the launch, click the button.

Launch to space Long March 4B | Feng Yun 1C
Long March 4B | Feng Yun 1C

Agency: N/A

Status: Launch Successful

Launch date: May 10, 1999, 1:33 a.m. UTC

Rocket: Long March 4B

Launch pad: Launch Complex 7

Location: Taiyuan Satellite Launch Center, People's Republic of China

...

Latest news about this satellite

There are no fresh news available about this satellite. Check back as we update our databases every day.


Newsletter sign-up

Weekly statistics, charts and insights to help you stay on top of the space industry.